Biggs, California, United States (95917)
Lat: 39.41N, Lon: 121.71W
Wx Zone: CAZ016
Local Info
Past Weather Observations for Wednesday, August 27, 2014

NOTE: This archive is for the closest National Weather Service station to Biggs. Information may differ from the station used for current weather conditions.

Click here for Long-term Archive

Time Weather Temperature Dewpoint Humidity Pressure Winds Precip Visibility
23:53
Clear
79°F / 26°C 52°F / 11°C 39% 30.01 in
(1016 mb)
E 6.9 mph
(E 11 kph)
- 10SM
22:53
Clear
81°F / 27°C 52°F / 11°C 37% 29.98 in
(1015 mb)
E 6.9 mph
(E 11 kph)
- 10SM
21:53
Clear
82°F / 28°C 48°F / 9°C 30% 29.98 in
(1015 mb)
E 6.9 mph
(E 11 kph)
- 10SM
20:53
Clear
82°F / 28°C 48°F / 9°C 30% 29.98 in
(1015 mb)
E 5.8 mph
(E 9 kph)
- 10SM
19:53
Clear
84°F / 29°C 46°F / 8°C 27% 29.95 in
(1014 mb)
E 5.8 mph
(E 9 kph)
- 10SM
18:53
Clear
88°F / 31°C 50°F / 10°C 27% 29.95 in
(1014 mb)
SE 5.8 mph
(SE 9 kph)
- 10SM
17:53
Clear
91°F / 33°C 52°F / 11°C 26% 29.92 in
(1013 mb)
S 10.4 mph
(S 17 kph)
- 10SM
16:53
Clear
93°F / 34°C 50°F / 10°C 23% 29.95 in
(1014 mb)
S 8.1 mph
(S 13 kph)
- 10SM
15:53
Clear
93°F / 34°C 52°F / 11°C 24% 29.95 in
(1014 mb)
SW 5.8 mph
(SW 9 kph)
- 10SM
14:53
Clear
93°F / 34°C 52°F / 11°C 24% 29.98 in
(1015 mb)
SW 5.8 mph
(SW 9 kph)
- 10SM
13:53
Clear
91°F / 33°C 52°F / 11°C 26% 30.01 in
(1016 mb)
Variable 3.5 mph
(Variable 6 kph)
- 10SM
12:53
Clear
88°F / 31°C 54°F / 12°C 31% 30.01 in
(1016 mb)
SW 5.8 mph
(SW 9 kph)
- 10SM
11:53
Clear
86°F / 30°C 57°F / 14°C 38% 30.04 in
(1017 mb)
WNW 4.6 mph
(WNW 7 kph)
- 10SM
10:53
Clear
82°F / 28°C 57°F / 14°C 42% 30.06 in
(1018 mb)
Calm - 10SM
09:53
Clear
79°F / 26°C 57°F / 14°C 48% 30.06 in
(1018 mb)
Calm - 10SM
08:53
Clear
75°F / 24°C 55°F / 13°C 50% 30.06 in
(1018 mb)
W 3.5 mph
(W 6 kph)
- 10SM
07:53
Clear
73°F / 23°C 52°F / 11°C 47% 30.06 in
(1018 mb)
Calm - 10SM
06:53
Clear
72°F / 22°C 52°F / 11°C 50% 30.06 in
(1018 mb)
Calm - 10SM
05:53
Fair
66°F / 19°C 54°F / 12°C 64% 30.06 in
(1018 mb)
Calm -
04:53
Clear
64°F / 18°C 54°F / 12°C 68% 30.04 in
(1017 mb)
Calm - 10SM
03:53
Clear
68°F / 20°C 54°F / 12°C 60% 30.01 in
(1016 mb)
SE 3.5 mph
(SE 6 kph)
- 10SM
02:53
Clear
68°F / 20°C 55°F / 13°C 64% 30.01 in
(1016 mb)
SE 4.6 mph
(SE 7 kph)
- 10SM
01:53
Clear
70°F / 21°C 54°F / 12°C 57% 29.98 in
(1015 mb)
SSE 6.9 mph
(SSE 11 kph)
- 10SM
00:53
Clear
73°F / 23°C 54°F / 12°C 50% 29.95 in
(1014 mb)
S 6.9 mph
(S 11 kph)
- 10SM
Time Weather Temperature Dewpoint Humidity Pressure Winds Precip Visibility


Weather for websites

WeatherForYou.com, LLC is not responsible for any damages or problems caused by this service. Current weather conditions are obtained from the closest station including government and personal stations which may have varying degrees of accuracy. Weather forecasts are derived from the NOAA NDFD. Like all things, this site belongs to Jesus Christ... He just trusts me to maintain it. If you have any questions or comments email webmaster@weatherforyou.com

Copyright © 2014, WeatherForYou.com LLC. All rights reserved.